[Iaude] MPEC V140: 2023 VC4 [a=1.77,e=0.48,i=2.3,H=26.9]
    mpec at marsden.cfa.harvard.edu 
    mpec at marsden.cfa.harvard.edu
       
    Thu Nov  9 09:30:35 EST 2023
    
    
  
M.P.E.C. 2023-V140                             Issued 2023 November 9, 14:28 UT
     The Minor Planet Electronic Circulars contain information on unusual
         minor planets, routine data on comets and natural satellites,
         and occasional editorial announcements.  They are published
    on behalf of Division F of the International Astronomical Union by the
          Minor Planet Center, Smithsonian Astrophysical Observatory,
                          Cambridge, MA 02138, U.S.A.
			  
             Prepared using the Tamkin Foundation Computer Network
                              MPC at CFA.HARVARD.EDU
            URL https://www.minorplanetcenter.net/    ISSN 1523-6714
                                    2023 VC4                                    
Observations:
     K23V04C* C2023 11 09.02168903 40 15.766-08 06 35.39         16.42cVEV140M22
     K23V04C  C2023 11 09.03494703 41 28.538-07 46 35.90         16.48cVEV140M22
     K23V04C  C2023 11 09.04052503 41 58.692-07 38 19.36         16.34cVEV140M22
     K23V04C  C2023 11 09.06785903 44 22.260-06 59 00.35         16.43cVEV140M22
     K23V04C  C2023 11 09.10154103 47 10.915-06 13 11.50         16.21oVEV140M22
     K23V04C  C2023 11 09.29079004 02 36.265-03 09 18.18         16.6 GVEV140H01
     K23V04C  C2023 11 09.29648204 02 54.459-03 03 49.98         16.7 GVEV140H01
     K23V04C mC2023 11 09.29736004 03 02.556-03 02 26.92         16.56GVEV140I52
     K23V04C mC2023 11 09.29753004 03 03.085-03 02 17.23         16.73GVEV140I52
     K23V04C mC2023 11 09.29770004 03 03.622-03 02 07.55         16.76GVEV140I52
     K23V04C mC2023 11 09.29787104 03 04.169-03 01 57.76         16.97GVEV140I52
     K23V04C  C2023 11 09.30496904 03 21.273-02 55 45.70         16.8 GVEV140H01
     K23V04C KB2023 11 09.30831 04 03 16.34 -02 54 12.8          16.9 GVEV140734
     K23V04C  C2023 11 09.31012 04 03 42.72 -02 53 01.2          16.6  rEV140718
     K23V04C  C2023 11 09.31146 04 03 46.94 -02 51 45.7          16.4  rEV140718
     K23V04C KB2023 11 09.31146 04 03 26.27 -02 51 14.7          16.8 GVEV140734
     K23V04C  C2023 11 09.31280 04 03 51.14 -02 50 30.9          16.6  rEV140718
     K23V04C  C2023 11 09.31459 04 03 56.75 -02 48 50.4          16.7  rEV140718
     K23V04C KB2023 11 09.31462 04 03 36.12 -02 48 18.1          16.8 GVEV140734
     K23V04C  C2023 11 09.31637 04 04 02.26 -02 47 11.9          17.4  rEV140718
     K23V04C KB2023 11 09.31771 04 03 45.72 -02 45 25.8          16.8 GVEV140734
     K23V04C 1C2023 11 09.39126004 07 37.528-01 38 58.38               VEV140703
     K23V04C 1C2023 11 09.39656904 07 51.953-01 34 36.91         16.90GVEV140703
     K23V04C 1C2023 11 09.40718104 08 20.573-01 25 59.16         17.14GVEV140703
     K23V04C KC2023 11 09.52045904 15 02.02 -00 02 43.6          17.5 GVEV140900
     K23V04C KC2023 11 09.52540604 15 13.43 +00 00 38.5          17.3 GVEV140900
     K23V04C KC2023 11 09.53135704 15 27.01 +00 04 39.2          17.4 GVEV140900
Observer details:
703 Catalina Sky Survey.  Observer R. A. Kowalski.  Measurers E. C. Beshore,
    D. Fay, J. B. Fazekas, D. C. Fuls, A. R. Gibbs, A. D. Grauer, H. Groeller,
    J. K. Hogan, R. A. Kowalski, S. M. Larson, G. J. Leonard, D. Rankin, R. L.
    Seaman, F. C. Shelly, K. W. Wierzchos.  0.68-m Schmidt + 10K CCD.
718 Tooele.  Observer P. Wiggins.  0.35-m f/5.5 Schmidt-Cassegrain + CCD.
734 Farpoint Observatory, Eskridge.  Observer .
900 Moriyama.  Observer Y. Ikari.  0.26-m f/7.0 reflector + CCD.
H01 Magdalena Ridge Observatory, Socorro.  Observers W. H. Ryan, E. V. Ryan.
    Measurer W. H. Ryan.  2.4-m f/8.9 Ritchey-Chretien + CCD.
I52 Steward Observatory, Mt. Lemmon Station.  Observer H. Groeller.  Measurers
    E. C. Beshore, D. Fay, J. B. Fazekas, D. C. Fuls, A. R. Gibbs, A. D.
    Grauer, H. Groeller, J. K. Hogan, R. A. Kowalski, S. M. Larson, G. J.
    Leonard, D. Rankin, R. L. Seaman, F. C. Shelly, K. W. Wierzchos.  1.0-m
    prime focus + CCD.
M22 ATLAS South Africa, Sutherland.  Observers L. Denneau, R. Siverd, J.
    Tonry, H. Weiland.  Measurers L. Denneau, N. Erasmus, A. Fitzsimmons, A.
    Lawrence, J. Robinson, R. Siverd, J. Tonry, H. Weiland.  0.5-m Reflector +
    CCD.
Orbital elements:
2023 VC4                                                 Earth MOID = 0.0015 AU
Epoch 2023 Sept. 13.0 TT = JDT 2460200.5                Veres                   
M 348.59556              (2000.0)            P               Q                  
n   0.41982684     Peri.  145.01541     +0.99038283     -0.13560779             
a   1.7664008      Node   222.80460     +0.11594215     +0.92165604             
e   0.4756786      Incl.    2.31350     +0.07549351     +0.36353909             
P   2.35           H   26.96          G   0.15           U   6                  
Residuals in seconds of arc
231109 M22  0.1+  0.0     231109 I52  0.2-  0.2-    231109 734  0.0   0.1+
231109 M22  0.3-  0.3-    231109 I52  0.1-  0.2-    231109 718  0.3-  0.6-
231109 M22  0.2+  0.1+    231109 H01  0.1+  0.1+    231109 734  0.2-  0.0
231109 M22  0.1+  0.2+    231109 734  0.0   0.2+    231109 703  0.0   0.5+
231109 M22  0.0   0.2+    231109 718  0.0   0.0     231109 703  0.1-  0.1-
231109 H01  0.2+  0.0     231109 718  0.1+  0.2+    231109 703  0.5+  0.0
231109 H01  0.1-  0.0     231109 734  0.5+  0.8+    231109 900  0.3-  0.5-
231109 I52  0.0   0.1-    231109 718  0.0   0.2-    231109 900  0.3-  0.1-
231109 I52  0.1-  0.2-    231109 718  0.3+  0.3+    231109 900  0.0   0.1-
Ephemeris:
2023 VC4                 a,e,i = 1.77, 0.48, 2                   q = 0.9262
Date    TT    R. A. (2000) Decl.     Delta      r    Elong.  Phase     V
2023 10 10    16 57 36.2 -14 56 02   0.1613  0.9262    59.0   112.4    27.1
...
2023 10 25    17 12 41.3 -15 33 59   0.07831 0.9439    48.0   128.5    26.9
...
2023 11 02    17 23 05.2 -17 11 11   0.03437 0.9674    42.5   136.1    25.9
...
2023 11 08    21 11 09.4 -44 43 20   0.0030130.9906    82.2    97.6    17.8
2023 11 09    03 38 33.6 -08 54 19   0.0046580.9949   152.2    27.7    16.5
2023 11 10    04 29 39.8 +04 08 11   0.0096820.9992   154.2    25.6    18.1
...
2023 11 16    05 03 00.4 +12 42 24   0.04223 1.0276   155.1    23.9    21.3
...
2023 11 24    05 06 06.6 +14 07 42   0.08709 1.0707   162.1    16.4    22.7
...
2023 12 09    05 03 51.9 +15 15 45   0.1795  1.1632   172.5     6.4    24.0
M. P. C. Staff               (C) Copyright 2023 MPC           M.P.E.C. 2023-V140
    
    
More information about the Iaude
mailing list